Time,TemperatureF,DewpointF,PressureIn,WindDirection,WindDirectionDegrees,WindSpeedMPH,WindSpeedGustMPH,Humidity,HourlyPrecipIn,Conditions,Clouds,dailyrainin,SolarRadiationWatts/m^2,SoftwareType,DateUTC
2013-07-19 00:33:00,60.0,48.0,29.73,WSW,254,0.0,-999.0,64,-99.99,,,-99.99,0.000000,,2013-07-19 07:33:00,
2013-07-19 00:43:00,60.0,48.0,29.73,WSW,254,0.0,-999.0,64,-99.99,,,-99.99,0.000000,,2013-07-19 07:43:00,
2013-07-19 00:53:00,60.0,48.0,29.73,WSW,254,0.0,-999.0,64,-99.99,,,-99.99,0.000000,,2013-07-19 07:53:00,
2013-07-19 01:01:00,60.0,48.0,29.73,WSW,254,0.0,-999.0,64,-99.99,,,-99.99,0.000000,,2013-07-19 08:01:00,
2013-07-19 03:33:00,58.0,47.0,29.70,ENE,74,0.0,-999.0,67,-99.99,,,-99.99,0.000000,,2013-07-19 10:33:00,
2013-07-19 03:43:00,58.0,47.0,29.70,ENE,74,0.0,-999.0,67,-99.99,,,-99.99,0.000000,,2013-07-19 10:43:00,
2013-07-19 03:52:00,58.0,47.0,29.70,ENE,74,0.0,-999.0,67,-99.99,,,-99.99,0.000000,,2013-07-19 10:52:00,
2013-07-19 04:02:00,58.0,47.0,29.70,ENE,74,0.0,-999.0,67,-99.99,,,-99.99,0.000000,,2013-07-19 11:02:00,
2013-07-19 06:32:00,54.0,48.0,29.70,ENE,74,0.0,-999.0,81,-99.99,,,-99.99,5.000000,,2013-07-19 13:32:00,
2013-07-19 06:53:00,54.0,48.0,29.70,ENE,74,0.0,-999.0,81,-99.99,,,-99.99,5.000000,,2013-07-19 13:53:00,
2013-07-19 07:01:00,54.0,48.0,29.70,ENE,74,0.0,-999.0,81,-99.99,,,-99.99,5.000000,,2013-07-19 14:01:00,
2013-07-19 09:32:00,65.0,53.0,29.72,South,169,0.0,-999.0,66,-99.99,,,-99.99,519.000000,,2013-07-19 16:32:00,
2013-07-19 09:43:00,65.0,53.0,29.72,South,169,0.0,-999.0,66,-99.99,,,-99.99,519.000000,,2013-07-19 16:43:00,
2013-07-19 09:52:00,65.0,53.0,29.72,South,169,0.0,-999.0,66,-99.99,,,-99.99,519.000000,,2013-07-19 16:52:00,
2013-07-19 10:02:00,65.0,53.0,29.72,South,169,0.0,-999.0,66,-99.99,,,-99.99,519.000000,,2013-07-19 17:02:00,
2013-07-19 12:32:00,84.0,54.0,29.70,South,171,2.0,-999.0,36,-99.99,,,-99.99,898.000000,,2013-07-19 19:32:00,
2013-07-19 12:43:00,84.0,54.0,29.70,South,171,2.0,-999.0,36,-99.99,,,-99.99,898.000000,,2013-07-19 19:43:00,
2013-07-19 12:52:00,84.0,54.0,29.70,South,171,2.0,-999.0,36,-99.99,,,-99.99,898.000000,,2013-07-19 19:52:00,
2013-07-19 13:01:00,84.0,54.0,29.70,South,171,2.0,-999.0,36,-99.99,,,-99.99,898.000000,,2013-07-19 20:01:00,
2013-07-19 15:32:00,94.0,52.0,29.65,WSW,258,3.0,-999.0,24,-99.99,,,-99.99,821.000000,,2013-07-19 22:32:00,
2013-07-19 15:43:00,94.0,52.0,29.65,WSW,258,3.0,-999.0,24,-99.99,,,-99.99,821.000000,,2013-07-19 22:43:00,
2013-07-19 15:52:00,94.0,52.0,29.65,WSW,258,3.0,-999.0,24,-99.99,,,-99.99,821.000000,,2013-07-19 22:52:00,
2013-07-19 16:01:00,94.0,52.0,29.65,WSW,258,3.0,-999.0,24,-99.99,,,-99.99,821.000000,,2013-07-19 23:01:00,
2013-07-19 18:32:00,91.0,48.0,29.61,West,261,3.0,-999.0,23,-99.99,,,-99.99,353.000000,,2013-07-20 01:32:00,
2013-07-19 18:52:00,91.0,48.0,29.61,West,261,3.0,-999.0,23,-99.99,,,-99.99,353.000000,,2013-07-20 01:52:00,
2013-07-19 19:01:00,91.0,48.0,29.61,West,261,3.0,-999.0,23,-99.99,,,-99.99,353.000000,,2013-07-20 02:01:00,